Location: Newark
(47.3150°N, 5.1150°E)
Time: 14:09:57
(UTC+00:00)

AO-7 - Pass Details

Date: 16 December 2019
Orbit: 1440 x 1459 km, 101.8° (Epoch: 17 January)

Event Time Altitude Azimuth Distance (km) Brightness Sun altitude
Rises 16:28:35 0° 223° (SW) 4,523 ? -6.5°
Reaches altitude 10° 16:33:23 10° 248° (WSW) 3,553 ? -7.2°
Maximum altitude 16:37:09 14° 276° (W) 3,280 ? -7.8°
Drops below altitude 10° 16:40:56 10° 303° (WNW) 3,567 ? -8.3°
Sets 16:45:50 0° 329° (NNW) 4,555 ? -9.1°
